Time,TemperatureF,DewpointF,PressureIn,WindDirection,WindDirectionDegrees,WindSpeedMPH,WindSpeedGustMPH,Humidity,HourlyPrecipIn,Conditions,Clouds,dailyrainin,SoftwareType,DateUTC
2013-07-08 00:00:00,75.3,68.7,30.10,SW,225,0.0,0.0,80,0.00,,SKC,0.00,VWS V14.00,2013-07-08 04:00:00,
2013-07-08 00:10:00,75.3,68.7,30.10,SW,225,0.0,0.0,80,0.00,,SKC,0.00,VWS V14.00,2013-07-08 04:10:00,
2013-07-08 00:20:00,75.3,68.7,30.10,SW,225,0.0,1.0,80,0.00,,SKC,0.00,VWS V14.00,2013-07-08 04:20:00,
2013-07-08 00:30:00,75.3,69.1,30.10,SW,225,0.0,0.0,81,0.00,,SKC,0.00,VWS V14.00,2013-07-08 04:30:00,
2013-07-08 00:40:00,75.2,69.0,30.10,SW,225,0.0,0.0,81,0.00,,SKC,0.00,VWS V14.00,2013-07-08 04:40:00,
2013-07-08 00:50:00,75.0,68.8,30.09,SW,225,0.0,0.0,81,0.00,,SKC,0.00,VWS V14.00,2013-07-08 04:50:00,
2013-07-08 01:00:00,75.0,68.8,30.09,SW,225,0.0,0.0,81,0.00,,SKC,0.00,VWS V14.00,2013-07-08 05:00:00,
2013-07-08 01:10:00,75.0,69.1,30.09,SW,225,0.0,0.0,82,0.00,,SKC,0.00,VWS V14.00,2013-07-08 05:10:00,
2013-07-08 01:20:00,75.0,69.1,30.10,SW,225,0.0,0.0,82,0.00,,SKC,0.00,VWS V14.00,2013-07-08 05:20:00,
2013-07-08 01:30:00,75.0,69.1,30.09,SW,225,0.0,3.0,82,0.00,,SKC,0.00,VWS V14.00,2013-07-08 05:30:00,
2013-07-08 01:40:00,74.6,68.8,30.09,SW,225,0.0,2.0,82,0.00,,SKC,0.00,VWS V14.00,2013-07-08 05:40:00,
2013-07-08 01:50:00,74.6,68.8,30.08,SW,225,0.0,0.0,82,0.00,,SKC,0.00,VWS V14.00,2013-07-08 05:50:00,
2013-07-08 02:00:00,74.5,68.7,30.09,SW,225,0.0,1.0,82,0.00,,SKC,0.00,VWS V14.00,2013-07-08 06:00:00,
2013-07-08 02:10:00,74.3,68.4,30.09,SW,225,0.0,0.0,82,0.00,,SKC,0.00,VWS V14.00,2013-07-08 06:10:00,
2013-07-08 02:20:00,74.3,68.8,30.08,SW,225,0.0,0.0,83,0.00,,SKC,0.00,VWS V14.00,2013-07-08 06:20:00,
2013-07-08 02:30:00,74.3,68.8,30.09,SW,225,0.0,0.0,83,0.00,,SKC,0.00,VWS V14.00,2013-07-08 06:30:00,
2013-07-08 02:40:00,74.3,68.8,30.09,SW,225,0.0,0.0,83,0.00,,SKC,0.00,VWS V14.00,2013-07-08 06:40:00,
2013-07-08 02:50:00,74.5,69.0,30.09,SW,225,0.0,1.0,83,0.00,,SKC,0.00,VWS V14.00,2013-07-08 06:50:00,
2013-07-08 03:00:00,74.6,69.1,30.09,SW,225,0.0,0.0,83,0.00,,SKC,0.00,VWS V14.00,2013-07-08 07:00:00,
2013-07-08 03:10:00,74.5,69.0,30.09,SW,225,0.0,0.0,83,0.00,,SKC,0.00,VWS V14.00,2013-07-08 07:10:00,
2013-07-08 03:20:00,74.3,68.8,30.08,SW,225,0.0,0.0,83,0.00,,SKC,0.00,VWS V14.00,2013-07-08 07:20:00,
2013-07-08 03:30:00,74.5,69.0,30.08,SW,225,0.0,0.0,83,0.00,,SKC,0.00,VWS V14.00,2013-07-08 07:30:00,
2013-07-08 03:40:00,74.3,68.8,30.08,SW,225,0.0,0.0,83,0.00,,SKC,0.00,VWS V14.00,2013-07-08 07:40:00,
2013-07-08 03:50:00,74.5,69.0,30.08,SW,225,0.0,4.0,83,0.00,,SKC,0.00,VWS V14.00,2013-07-08 07:50:00,
2013-07-08 04:00:00,74.5,69.3,30.08,SW,225,0.0,0.0,84,0.00,,SKC,0.00,VWS V14.00,2013-07-08 08:00:00,
2013-07-08 04:10:00,74.5,69.3,30.08,SW,225,0.0,1.0,84,0.00,,SKC,0.00,VWS V14.00,2013-07-08 08:10:00,
2013-07-08 04:20:00,74.5,69.3,30.08,SW,225,0.0,0.0,84,0.00,,SKC,0.00,VWS V14.00,2013-07-08 08:20:00,
2013-07-08 04:30:00,74.5,69.3,30.08,North,0,0.0,0.0,84,0.00,,SKC,0.00,VWS V14.00,2013-07-08 08:30:00,
2013-07-08 04:40:00,74.3,69.2,30.08,North,0,0.0,0.0,84,0.00,,SKC,0.00,VWS V14.00,2013-07-08 08:40:00,
2013-07-08 04:50:00,74.3,69.2,30.08,SW,225,0.0,2.0,84,0.00,,SKC,0.00,VWS V14.00,2013-07-08 08:50:00,
2013-07-08 05:00:00,74.3,69.2,30.08,SW,225,0.0,0.0,84,0.00,,SKC,0.00,VWS V14.00,2013-07-08 09:00:00,
2013-07-08 05:10:00,74.6,69.4,30.08,SW,225,0.0,0.0,84,0.00,,SKC,0.00,VWS V14.00,2013-07-08 09:10:00,
2013-07-08 05:20:00,74.6,69.4,30.08,SW,225,0.0,0.0,84,0.00,,SKC,0.00,VWS V14.00,2013-07-08 09:20:00,
2013-07-08 05:30:00,74.5,69.3,30.08,SW,225,0.0,0.0,84,0.00,,SKC,0.00,VWS V14.00,2013-07-08 09:30:00,
2013-07-08 05:40:00,74.3,69.2,30.08,SW,225,0.0,0.0,84,0.00,,SKC,0.00,VWS V14.00,2013-07-08 09:40:00,
2013-07-08 05:50:00,74.3,69.2,30.08,SW,225,0.0,0.0,84,0.00,,SKC,0.00,VWS V14.00,2013-07-08 09:50:00,
2013-07-08 06:00:00,74.1,69.0,30.08,SW,225,0.0,0.0,84,0.00,,SKC,0.00,VWS V14.00,2013-07-08 10:00:00,
2013-07-08 06:10:00,74.0,68.9,30.08,SW,225,0.0,0.0,84,0.00,,SKC,0.00,VWS V14.00,2013-07-08 10:10:00,
2013-07-08 06:20:00,73.8,68.3,30.08,SW,225,0.0,1.0,83,0.00,,SKC,0.00,VWS V14.00,2013-07-08 10:20:00,
2013-07-08 06:30:00,73.8,68.7,30.08,SW,225,0.0,1.0,84,0.00,,SKC,0.00,VWS V14.00,2013-07-08 10:30:00,
2013-07-08 06:40:00,73.8,68.7,30.08,SW,225,0.0,0.0,84,0.00,,SKC,0.00,VWS V14.00,2013-07-08 10:40:00,
2013-07-08 06:50:00,73.8,68.7,30.09,SW,225,0.0,0.0,84,0.00,,SKC,0.00,VWS V14.00,2013-07-08 10:50:00,
2013-07-08 07:00:00,73.8,69.0,30.09,SW,225,0.0,0.0,85,0.00,,SKC,0.00,VWS V14.00,2013-07-08 11:00:00,
2013-07-08 07:10:00,73.8,69.0,30.09,SW,225,1.0,3.0,85,0.00,,SKC,0.00,VWS V14.00,2013-07-08 11:10:00,
2013-07-08 07:20:00,73.8,69.0,30.10,SW,225,0.0,0.0,85,0.00,,SKC,0.00,VWS V14.00,2013-07-08 11:20:00,
2013-07-08 07:30:00,73.8,69.0,30.10,SW,225,0.0,0.0,85,0.00,,SKC,0.00,VWS V14.00,2013-07-08 11:30:00,
2013-07-08 07:40:00,73.8,69.0,30.10,SW,225,0.0,4.0,85,0.00,,SKC,0.00,VWS V14.00,2013-07-08 11:40:00,
2013-07-08 07:50:00,73.8,69.0,30.10,SW,225,0.0,4.0,85,0.00,,SKC,0.00,VWS V14.00,2013-07-08 11:50:00,
2013-07-08 08:00:00,74.0,69.2,30.10,SW,225,0.0,4.0,85,0.00,,SKC,0.00,VWS V14.00,2013-07-08 12:00:00,
2013-07-08 08:10:00,73.8,69.0,30.10,SW,225,0.0,0.0,85,0.00,,SKC,0.00,VWS V14.00,2013-07-08 12:10:00,
2013-07-08 08:20:00,74.0,69.2,30.10,SW,225,0.0,0.0,85,0.00,,SKC,0.00,VWS V14.00,2013-07-08 12:20:00,
2013-07-08 08:30:00,74.1,69.3,30.10,SW,225,0.0,3.0,85,0.00,,SKC,0.00,VWS V14.00,2013-07-08 12:30:00,
2013-07-08 08:40:00,74.3,69.5,30.10,SW,225,1.0,4.0,85,0.00,,SKC,0.00,VWS V14.00,2013-07-08 12:40:00,
2013-07-08 08:50:00,74.3,69.5,30.10,SW,225,3.0,6.0,85,0.00,,SKC,0.00,VWS V14.00,2013-07-08 12:50:00,
2013-07-08 09:00:00,74.6,69.8,30.10,SW,225,3.0,7.0,85,0.00,,SKC,0.00,VWS V14.00,2013-07-08 13:00:00,
2013-07-08 09:10:00,74.6,69.4,30.10,West,270,4.0,7.0,84,0.00,,SKC,0.00,VWS V14.00,2013-07-08 13:10:00,
2013-07-08 09:20:00,74.8,69.3,30.11,West,270,3.0,5.0,83,0.00,,SKC,0.00,VWS V14.00,2013-07-08 13:20:00,
2013-07-08 09:30:00,75.2,69.3,30.11,West,270,2.0,5.0,82,0.00,,SKC,0.00,VWS V14.00,2013-07-08 13:30:00,
2013-07-08 09:40:00,75.5,68.9,30.11,SSE,158,0.0,5.0,80,0.00,,SKC,0.00,VWS V14.00,2013-07-08 13:40:00,
2013-07-08 09:50:00,76.0,68.7,30.12,South,180,0.0,5.0,78,0.00,,SKC,0.00,VWS V14.00,2013-07-08 13:50:00,
2013-07-08 10:00:00,76.2,68.1,30.12,South,180,0.0,5.0,76,0.00,,SKC,0.00,VWS V14.00,2013-07-08 14:00:00,
2013-07-08 10:10:00,76.4,67.9,30.12,SSW,202,0.0,4.0,75,0.00,,SKC,0.00,VWS V14.00,2013-07-08 14:10:00,
2013-07-08 10:20:00,76.9,68.0,30.12,SSW,202,0.0,1.0,74,0.00,,SKC,0.00,VWS V14.00,2013-07-08 14:20:00,
2013-07-08 10:30:00,77.9,67.3,30.12,SSW,202,1.0,5.0,70,0.00,,SKC,0.00,VWS V14.00,2013-07-08 14:30:00,
2013-07-08 10:40:00,78.6,68.0,30.12,SSW,202,0.0,4.0,70,0.00,,SKC,0.00,VWS V14.00,2013-07-08 14:40:00,
2013-07-08 10:50:00,79.5,67.6,30.12,SSW,202,0.0,1.0,67,0.00,,SKC,0.00,VWS V14.00,2013-07-08 14:50:00,
2013-07-08 11:07:00,82.1,66.4,30.13,WNW,288,0.0,0.0,59,0.00,,SKC,0.00,VWS V14.00,2013-07-08 15:07:00,
2013-07-08 11:10:00,82.4,66.7,30.13,WNW,288,0.0,2.0,59,7.53,,SKC,0.00,VWS V14.00,2013-07-08 15:10:00,
2013-07-08 11:12:00,82.6,65.8,30.13,WNW,288,0.0,3.0,57,7.53,,SKC,0.00,VWS V14.00,2013-07-08 15:12:00,
2013-07-08 11:17:00,83.2,66.4,30.13,NW,306,0.0,4.0,57,7.53,,SKC,0.00,VWS V14.00,2013-07-08 15:17:00,
2013-07-08 11:22:00,83.2,66.4,30.13,NW,306,0.0,0.0,57,7.53,,SKC,0.00,VWS V14.00,2013-07-08 15:22:00,
2013-07-08 11:27:00,83.2,66.4,30.13,NW,306,0.0,0.0,57,7.53,,SKC,0.00,VWS V14.00,2013-07-08 15:27:00,
2013-07-08 11:32:00,83.2,66.4,30.14,NW,306,0.0,0.0,57,7.53,,SKC,0.00,VWS V14.00,2013-07-08 15:32:00,
2013-07-08 11:37:00,83.2,66.4,30.14,NW,306,0.0,0.0,57,7.53,,SKC,0.00,VWS V14.00,2013-07-08 15:37:00,
2013-07-08 11:42:00,83.2,66.4,30.14,NW,306,0.0,0.0,57,7.53,,SKC,0.00,VWS V14.00,2013-07-08 15:42:00,
2013-07-08 11:47:00,83.2,66.4,30.14,NW,306,0.0,0.0,57,7.53,,SKC,0.00,VWS V14.00,2013-07-08 15:47:00,
2013-07-08 11:52:00,83.2,66.4,30.14,NW,306,0.0,0.0,57,7.53,,SKC,0.00,VWS V14.00,2013-07-08 15:52:00,
2013-07-08 11:57:00,83.2,66.4,30.14,NW,306,0.0,0.0,57,7.53,,SKC,0.00,VWS V14.00,2013-07-08 15:57:00,
2013-07-08 12:02:00,83.2,66.4,30.14,NW,306,0.0,0.0,57,0.00,,SKC,0.00,VWS V14.00,2013-07-08 16:02:00,
2013-07-08 12:07:00,83.2,66.4,30.14,NW,306,0.0,0.0,57,0.00,,SKC,0.00,VWS V14.00,2013-07-08 16:07:00,
2013-07-08 12:12:00,83.2,66.4,30.14,NW,306,0.0,0.0,57,0.00,,SKC,0.00,VWS V14.00,2013-07-08 16:12:00,
2013-07-08 12:17:00,83.2,66.4,30.14,NW,306,0.0,0.0,57,0.00,,SKC,0.00,VWS V14.00,2013-07-08 16:17:00,
2013-07-08 12:22:00,83.2,66.4,30.14,NW,306,0.0,0.0,57,0.00,,SKC,0.00,VWS V14.00,2013-07-08 16:22:00,
2013-07-08 12:27:00,83.2,66.4,30.14,NW,306,0.0,0.0,57,0.00,,SKC,0.00,VWS V14.00,2013-07-08 16:27:00,
2013-07-08 12:32:00,83.2,66.4,30.13,NW,306,0.0,0.0,57,0.00,,SKC,0.00,VWS V14.00,2013-07-08 16:32:00,
2013-07-08 12:37:00,83.2,66.4,30.13,NW,306,0.0,0.0,57,0.00,,SKC,0.00,VWS V14.00,2013-07-08 16:37:00,
2013-07-08 12:42:00,83.2,66.4,30.13,NW,306,0.0,0.0,57,0.00,,SKC,0.00,VWS V14.00,2013-07-08 16:42:00,
2013-07-08 12:47:00,83.2,66.4,30.13,NW,306,0.0,0.0,57,0.00,,SKC,0.00,VWS V14.00,2013-07-08 16:47:00,
2013-07-08 12:52:00,83.2,66.4,30.13,NW,306,0.0,0.0,57,0.00,,SKC,0.00,VWS V14.00,2013-07-08 16:52:00,
2013-07-08 12:57:00,83.2,66.4,30.13,NW,306,0.0,0.0,57,0.00,,SKC,0.00,VWS V14.00,2013-07-08 16:57:00,
2013-07-08 13:03:00,83.2,66.4,30.13,NW,306,0.0,0.0,57,0.00,,SKC,0.00,VWS V14.00,2013-07-08 17:03:00,
2013-07-08 13:08:00,83.2,66.4,30.13,NW,306,0.0,0.0,57,0.00,,SKC,0.00,VWS V14.00,2013-07-08 17:08:00,
2013-07-08 13:12:00,83.2,66.4,30.13,NW,306,0.0,0.0,57,0.00,,SKC,0.00,VWS V14.00,2013-07-08 17:12:00,
2013-07-08 13:17:00,83.2,66.4,30.13,NW,306,0.0,0.0,57,0.00,,SKC,0.00,VWS V14.00,2013-07-08 17:17:00,
2013-07-08 13:23:00,83.2,66.4,30.13,NW,306,0.0,0.0,57,0.00,,SKC,0.00,VWS V14.00,2013-07-08 17:23:00,
2013-07-08 13:28:00,83.2,66.4,30.13,NW,306,0.0,0.0,57,0.00,,SKC,0.00,VWS V14.00,2013-07-08 17:28:00,
2013-07-08 13:33:00,83.2,66.4,30.12,NW,306,0.0,0.0,57,0.00,,SKC,0.00,VWS V14.00,2013-07-08 17:33:00,
2013-07-08 13:39:00,83.2,66.4,30.12,NW,306,0.0,0.0,57,0.00,,SKC,0.00,VWS V14.00,2013-07-08 17:39:00,
2013-07-08 13:44:00,83.2,66.4,30.12,NW,306,0.0,0.0,57,0.00,,SKC,0.00,VWS V14.00,2013-07-08 17:44:00,
2013-07-08 13:49:00,83.2,66.4,30.11,NW,306,0.0,0.0,57,0.00,,SKC,0.00,VWS V14.00,2013-07-08 17:49:00,
2013-07-08 13:54:00,83.2,66.4,30.11,NW,306,0.0,0.0,57,0.00,,SKC,0.00,VWS V14.00,2013-07-08 17:54:00,
2013-07-08 13:59:00,83.2,66.4,30.11,NW,306,0.0,0.0,57,0.00,,SKC,0.00,VWS V14.00,2013-07-08 17:59:00,
2013-07-08 14:04:00,83.2,66.4,30.11,NW,306,0.0,0.0,57,0.00,,SKC,0.00,VWS V14.00,2013-07-08 18:04:00,
2013-07-08 14:09:00,83.2,66.4,30.11,NW,306,0.0,0.0,57,0.00,,SKC,0.00,VWS V14.00,2013-07-08 18:09:00,
2013-07-08 14:14:00,83.2,66.4,30.10,NW,306,0.0,0.0,57,0.00,,SKC,0.00,VWS V14.00,2013-07-08 18:14:00,
2013-07-08 14:19:00,83.2,66.4,30.10,NW,306,0.0,0.0,57,0.00,,SKC,0.00,VWS V14.00,2013-07-08 18:19:00,
2013-07-08 14:24:00,83.2,66.4,30.10,NW,306,0.0,0.0,57,0.00,,SKC,0.00,VWS V14.00,2013-07-08 18:24:00,
2013-07-08 14:29:00,83.2,66.4,30.10,NW,306,0.0,0.0,57,0.00,,SKC,0.00,VWS V14.00,2013-07-08 18:29:00,
2013-07-08 14:35:00,83.2,66.4,30.10,NW,306,0.0,0.0,57,0.00,,SKC,0.00,VWS V14.00,2013-07-08 18:35:00,
2013-07-08 14:40:00,83.2,66.4,30.10,NW,306,0.0,0.0,57,0.00,,SKC,0.00,VWS V14.00,2013-07-08 18:40:00,
2013-07-08 14:45:00,83.2,66.4,30.10,NW,306,0.0,0.0,57,0.00,,SKC,0.00,VWS V14.00,2013-07-08 18:45:00,
2013-07-08 14:50:00,83.2,66.4,30.10,NW,306,0.0,0.0,57,0.00,,SKC,0.00,VWS V14.00,2013-07-08 18:50:00,
2013-07-08 14:55:00,83.2,66.4,30.10,NW,306,0.0,0.0,57,0.00,,SKC,0.00,VWS V14.00,2013-07-08 18:55:00,
2013-07-08 15:01:00,83.2,66.4,30.09,NW,306,0.0,0.0,57,0.00,,SKC,0.00,VWS V14.00,2013-07-08 19:01:00,
2013-07-08 15:06:00,83.2,66.4,30.09,NW,306,0.0,0.0,57,0.00,,SKC,0.00,VWS V14.00,2013-07-08 19:06:00,
2013-07-08 15:11:00,83.2,66.4,30.09,NW,306,0.0,0.0,57,0.00,,SKC,0.00,VWS V14.00,2013-07-08 19:11:00,
2013-07-08 15:16:00,83.2,66.4,30.08,NW,306,0.0,0.0,57,0.00,,SKC,0.00,VWS V14.00,2013-07-08 19:16:00,
2013-07-08 15:21:00,83.2,66.4,30.08,NW,306,0.0,0.0,57,0.00,,SKC,0.00,VWS V14.00,2013-07-08 19:21:00,
2013-07-08 15:26:00,83.2,66.4,30.08,NW,306,0.0,0.0,57,0.00,,SKC,0.00,VWS V14.00,2013-07-08 19:26:00,
2013-07-08 15:32:00,83.2,66.4,30.08,NW,306,0.0,0.0,57,0.00,,SKC,0.00,VWS V14.00,2013-07-08 19:32:00,
2013-07-08 15:38:00,83.2,66.4,30.08,NW,306,0.0,0.0,57,0.00,,SKC,0.00,VWS V14.00,2013-07-08 19:38:00,
2013-07-08 15:43:00,83.2,66.4,30.08,NW,306,0.0,0.0,57,0.00,,SKC,0.00,VWS V14.00,2013-07-08 19:43:00,
2013-07-08 15:48:00,83.2,66.4,30.08,NW,306,0.0,0.0,57,0.00,,SKC,0.00,VWS V14.00,2013-07-08 19:48:00,
2013-07-08 15:53:00,83.2,66.4,30.08,NW,306,0.0,0.0,57,0.00,,SKC,0.00,VWS V14.00,2013-07-08 19:53:00,
2013-07-08 15:59:00,83.2,66.4,30.08,NW,306,0.0,0.0,57,0.00,,SKC,0.00,VWS V14.00,2013-07-08 19:59:00,
2013-07-08 16:04:00,83.2,66.4,30.08,NW,306,0.0,0.0,57,0.00,,SKC,0.00,VWS V14.00,2013-07-08 20:04:00,
2013-07-08 16:09:00,83.2,66.4,30.08,NW,306,0.0,0.0,57,0.00,,SKC,0.00,VWS V14.00,2013-07-08 20:09:00,
2013-07-08 16:14:00,83.2,66.4,30.07,NW,306,0.0,0.0,57,0.00,,SKC,0.00,VWS V14.00,2013-07-08 20:14:00,
2013-07-08 16:19:00,83.2,66.4,30.07,NW,306,0.0,0.0,57,0.00,,SKC,0.00,VWS V14.00,2013-07-08 20:19:00,
2013-07-08 16:25:00,83.2,66.4,30.07,NW,306,0.0,0.0,57,0.00,,SKC,0.00,VWS V14.00,2013-07-08 20:25:00,
2013-07-08 16:30:00,83.2,66.4,30.06,NW,306,0.0,0.0,57,0.00,,SKC,0.00,VWS V14.00,2013-07-08 20:30:00,
2013-07-08 16:35:00,83.2,66.4,30.06,NW,306,0.0,0.0,57,0.00,,SKC,0.00,VWS V14.00,2013-07-08 20:35:00,
2013-07-08 16:40:00,83.2,66.4,30.06,NW,306,0.0,0.0,57,0.00,,SKC,0.00,VWS V14.00,2013-07-08 20:40:00,
2013-07-08 16:45:00,83.2,66.4,30.06,NW,306,0.0,0.0,57,0.00,,SKC,0.00,VWS V14.00,2013-07-08 20:45:00,
2013-07-08 16:50:00,83.2,66.4,30.06,NW,306,0.0,0.0,57,0.00,,SKC,0.00,VWS V14.00,2013-07-08 20:50:00,
2013-07-08 16:55:00,83.2,66.4,30.06,NW,306,0.0,0.0,57,0.00,,SKC,0.00,VWS V14.00,2013-07-08 20:55:00,
2013-07-08 17:01:00,83.2,66.4,30.06,NW,306,0.0,0.0,57,0.00,,SKC,0.00,VWS V14.00,2013-07-08 21:01:00,
2013-07-08 17:06:00,83.2,66.4,30.06,NW,306,0.0,0.0,57,0.00,,SKC,0.00,VWS V14.00,2013-07-08 21:06:00,
2013-07-08 17:11:00,83.2,66.4,30.06,NW,306,0.0,0.0,57,0.00,,SKC,0.00,VWS V14.00,2013-07-08 21:11:00,
2013-07-08 17:16:00,83.2,66.4,30.05,NW,306,0.0,0.0,57,0.00,,SKC,0.00,VWS V14.00,2013-07-08 21:16:00,
2013-07-08 17:21:00,83.2,66.4,30.05,NW,306,0.0,0.0,57,0.00,,SKC,0.00,VWS V14.00,2013-07-08 21:21:00,
2013-07-08 17:26:00,83.2,66.4,30.05,NW,306,0.0,0.0,57,0.00,,SKC,0.00,VWS V14.00,2013-07-08 21:26:00,
2013-07-08 17:31:00,83.2,66.4,30.05,NW,306,0.0,0.0,57,0.00,,SKC,0.00,VWS V14.00,2013-07-08 21:31:00,
2013-07-08 17:37:00,83.2,66.4,30.05,NW,306,0.0,0.0,57,0.00,,SKC,0.00,VWS V14.00,2013-07-08 21:37:00,
2013-07-08 17:42:00,83.2,66.4,30.05,NW,306,0.0,0.0,57,0.00,,SKC,0.00,VWS V14.00,2013-07-08 21:42:00,
2013-07-08 17:47:00,83.2,66.4,30.05,NW,306,0.0,0.0,57,0.00,,SKC,0.00,VWS V14.00,2013-07-08 21:47:00,
2013-07-08 17:52:00,83.2,66.4,30.05,NW,306,0.0,0.0,57,0.00,,SKC,0.00,VWS V14.00,2013-07-08 21:52:00,
2013-07-08 17:57:00,83.2,66.4,30.05,NW,306,0.0,0.0,57,0.00,,SKC,0.00,VWS V14.00,2013-07-08 21:57:00,
2013-07-08 18:02:00,83.2,66.4,30.05,NW,306,0.0,0.0,57,0.00,,SKC,0.00,VWS V14.00,2013-07-08 22:02:00,
2013-07-08 18:07:00,83.2,66.4,30.05,NW,306,0.0,0.0,57,0.00,,SKC,0.00,VWS V14.00,2013-07-08 22:07:00,
2013-07-08 18:12:00,83.2,66.4,30.05,NW,306,0.0,0.0,57,0.00,,SKC,0.00,VWS V14.00,2013-07-08 22:12:00,
2013-07-08 18:17:00,83.2,66.4,30.05,NW,306,0.0,0.0,57,0.00,,SKC,0.00,VWS V14.00,2013-07-08 22:17:00,
2013-07-08 18:22:00,83.2,66.4,30.05,NW,306,0.0,0.0,57,0.00,,SKC,0.00,VWS V14.00,2013-07-08 22:22:00,
2013-07-08 18:27:00,83.2,66.4,30.05,NW,306,0.0,0.0,57,0.00,,SKC,0.00,VWS V14.00,2013-07-08 22:27:00,
2013-07-08 18:33:00,83.2,66.4,30.05,NW,306,0.0,0.0,57,0.00,,SKC,0.00,VWS V14.00,2013-07-08 22:33:00,
2013-07-08 18:38:00,83.2,66.4,30.05,NW,306,0.0,0.0,57,0.00,,SKC,0.00,VWS V14.00,2013-07-08 22:38:00,
2013-07-08 18:43:00,83.2,66.4,30.05,NW,306,0.0,0.0,57,0.00,,SKC,0.00,VWS V14.00,2013-07-08 22:43:00,
2013-07-08 18:48:00,83.2,66.4,30.05,NW,306,0.0,0.0,57,0.00,,SKC,0.00,VWS V14.00,2013-07-08 22:48:00,
2013-07-08 18:54:00,83.2,66.4,30.05,NW,306,0.0,0.0,57,0.00,,SKC,0.00,VWS V14.00,2013-07-08 22:54:00,
2013-07-08 18:59:00,83.2,66.4,30.05,NW,306,0.0,0.0,57,0.00,,SKC,0.00,VWS V14.00,2013-07-08 22:59:00,
2013-07-08 19:04:00,83.2,66.4,30.05,NW,306,0.0,0.0,57,0.00,,SKC,0.00,VWS V14.00,2013-07-08 23:04:00,
2013-07-08 19:09:00,83.2,66.4,30.05,NW,306,0.0,0.0,57,0.00,,SKC,0.00,VWS V14.00,2013-07-08 23:09:00,
2013-07-08 19:15:00,83.2,66.4,30.06,NW,306,0.0,0.0,57,0.00,,SKC,0.00,VWS V14.00,2013-07-08 23:15:00,
2013-07-08 19:20:00,83.2,66.4,30.06,NW,306,0.0,0.0,57,0.00,,SKC,0.00,VWS V14.00,2013-07-08 23:20:00,
2013-07-08 19:25:00,83.2,66.4,30.06,NW,306,0.0,0.0,57,0.00,,SKC,0.00,VWS V14.00,2013-07-08 23:25:00,
2013-07-08 19:30:00,83.2,66.4,30.06,NW,306,0.0,0.0,57,0.00,,SKC,0.00,VWS V14.00,2013-07-08 23:30:00,
2013-07-08 19:35:00,83.2,66.4,30.06,NW,306,0.0,0.0,57,0.00,,SKC,0.00,VWS V14.00,2013-07-08 23:35:00,
2013-07-08 19:40:00,83.2,66.4,30.06,NW,306,0.0,0.0,57,0.00,,SKC,0.00,VWS V14.00,2013-07-08 23:40:00,
2013-07-08 19:45:00,83.2,66.4,30.06,NW,306,0.0,0.0,57,0.00,,SKC,0.00,VWS V14.00,2013-07-08 23:45:00,
2013-07-08 19:51:00,83.2,66.4,30.06,NW,306,0.0,0.0,57,0.00,,SKC,0.00,VWS V14.00,2013-07-08 23:51:00,
2013-07-08 19:56:00,83.2,66.4,30.06,NW,306,0.0,0.0,57,0.00,,SKC,0.00,VWS V14.00,2013-07-08 23:56:00,
2013-07-08 20:01:00,83.2,66.4,30.07,NW,306,0.0,0.0,57,0.00,,SKC,0.00,VWS V14.00,2013-07-09 00:01:00,
2013-07-08 20:06:00,83.2,66.4,30.07,NW,306,0.0,0.0,57,0.00,,SKC,0.00,VWS V14.00,2013-07-09 00:06:00,
2013-07-08 20:12:00,83.2,66.4,30.07,NW,306,0.0,0.0,57,0.00,,SKC,0.00,VWS V14.00,2013-07-09 00:12:00,
2013-07-08 20:17:00,83.2,66.4,30.06,NW,306,0.0,0.0,57,0.00,,SKC,0.00,VWS V14.00,2013-07-09 00:17:00,
2013-07-08 20:22:00,83.2,66.4,30.06,NW,306,0.0,0.0,57,0.00,,SKC,0.00,VWS V14.00,2013-07-09 00:22:00,
2013-07-08 20:27:00,83.2,66.4,30.06,NW,306,0.0,0.0,57,0.00,,SKC,0.00,VWS V14.00,2013-07-09 00:27:00,
2013-07-08 20:32:00,83.2,66.4,30.06,NW,306,0.0,0.0,57,0.00,,SKC,0.00,VWS V14.00,2013-07-09 00:32:00,
2013-07-08 20:37:00,83.2,66.4,30.06,NW,306,0.0,0.0,57,0.00,,SKC,0.00,VWS V14.00,2013-07-09 00:37:00,
2013-07-08 20:42:00,83.2,66.4,30.06,NW,306,0.0,0.0,57,0.00,,SKC,0.00,VWS V14.00,2013-07-09 00:42:00,
2013-07-08 20:47:00,83.2,66.4,30.07,NW,306,0.0,0.0,57,0.00,,SKC,0.00,VWS V14.00,2013-07-09 00:47:00,
2013-07-08 20:52:00,83.2,66.4,30.07,NW,306,0.0,0.0,57,0.00,,SKC,0.00,VWS V14.00,2013-07-09 00:52:00,
2013-07-08 20:57:00,83.2,66.4,30.07,NW,306,0.0,0.0,57,0.00,,SKC,0.00,VWS V14.00,2013-07-09 00:57:00,
2013-07-08 21:03:00,83.2,66.4,30.09,NW,306,0.0,0.0,57,0.00,,SKC,0.00,VWS V14.00,2013-07-09 01:03:00,
2013-07-08 21:08:00,83.2,66.4,30.09,NW,306,0.0,0.0,57,0.00,,SKC,0.00,VWS V14.00,2013-07-09 01:08:00,
2013-07-08 21:13:00,83.2,66.4,30.09,NW,306,0.0,0.0,57,0.00,,SKC,0.00,VWS V14.00,2013-07-09 01:13:00,
2013-07-08 21:18:00,83.2,66.4,30.08,NW,306,0.0,0.0,57,0.00,,SKC,0.00,VWS V14.00,2013-07-09 01:18:00,
2013-07-08 21:23:00,83.2,66.4,30.08,NW,306,0.0,0.0,57,0.00,,SKC,0.00,VWS V14.00,2013-07-09 01:23:00,
2013-07-08 21:29:00,83.2,66.4,30.08,NW,306,0.0,0.0,57,0.00,,SKC,0.00,VWS V14.00,2013-07-09 01:29:00,
2013-07-08 21:34:00,83.2,66.4,30.08,NW,306,0.0,0.0,57,0.00,,SKC,0.00,VWS V14.00,2013-07-09 01:34:00,
2013-07-08 21:39:00,83.2,66.4,30.08,NW,306,0.0,0.0,57,0.00,,SKC,0.00,VWS V14.00,2013-07-09 01:39:00,
2013-07-08 21:44:00,83.2,66.4,30.08,NW,306,0.0,0.0,57,0.00,,SKC,0.00,VWS V14.00,2013-07-09 01:44:00,
2013-07-08 21:49:00,83.2,66.4,30.08,NW,306,0.0,0.0,57,0.00,,SKC,0.00,VWS V14.00,2013-07-09 01:49:00,
2013-07-08 21:54:00,83.2,66.4,30.08,NW,306,0.0,0.0,57,0.00,,SKC,0.00,VWS V14.00,2013-07-09 01:54:00,
2013-07-08 22:00:00,83.2,66.4,30.10,NW,306,0.0,0.0,57,0.00,,SKC,0.00,VWS V14.00,2013-07-09 02:00:00,
2013-07-08 22:05:00,83.2,66.4,30.10,NW,306,0.0,0.0,57,0.00,,SKC,0.00,VWS V14.00,2013-07-09 02:05:00,
2013-07-08 22:10:00,83.2,66.4,30.10,NW,306,0.0,0.0,57,0.00,,SKC,0.00,VWS V14.00,2013-07-09 02:10:00,
2013-07-08 22:15:00,83.2,66.4,30.11,NW,306,0.0,0.0,57,0.00,,SKC,0.00,VWS V14.00,2013-07-09 02:15:00,
2013-07-08 22:20:00,83.2,66.4,30.11,NW,306,0.0,0.0,57,0.00,,SKC,0.00,VWS V14.00,2013-07-09 02:20:00,
2013-07-08 22:25:00,83.2,66.4,30.11,NW,306,0.0,0.0,57,0.00,,SKC,0.00,VWS V14.00,2013-07-09 02:25:00,
2013-07-08 22:31:00,83.2,66.4,30.11,NW,306,0.0,0.0,57,0.00,,SKC,0.00,VWS V14.00,2013-07-09 02:31:00,
2013-07-08 22:36:00,83.2,66.4,30.11,NW,306,0.0,0.0,57,0.00,,SKC,0.00,VWS V14.00,2013-07-09 02:36:00,
2013-07-08 22:41:00,83.2,66.4,30.11,NW,306,0.0,0.0,57,0.00,,SKC,0.00,VWS V14.00,2013-07-09 02:41:00,
2013-07-08 22:46:00,83.2,66.4,30.10,NW,306,0.0,0.0,57,0.00,,SKC,0.00,VWS V14.00,2013-07-09 02:46:00,
2013-07-08 22:51:00,83.2,66.4,30.10,NW,306,0.0,0.0,57,0.00,,SKC,0.00,VWS V14.00,2013-07-09 02:51:00,
2013-07-08 22:56:00,83.2,66.4,30.10,NW,306,0.0,0.0,57,0.00,,SKC,0.00,VWS V14.00,2013-07-09 02:56:00,
2013-07-08 23:01:00,83.2,66.4,30.10,NW,306,0.0,0.0,57,0.00,,SKC,0.00,VWS V14.00,2013-07-09 03:01:00,
2013-07-08 23:07:00,83.2,66.4,30.10,NW,306,0.0,0.0,57,0.00,,SKC,0.00,VWS V14.00,2013-07-09 03:07:00,
2013-07-08 23:12:00,83.2,66.4,30.10,NW,306,0.0,0.0,57,0.00,,SKC,0.00,VWS V14.00,2013-07-09 03:12:00,
2013-07-08 23:17:00,83.2,66.4,30.17,NW,306,0.0,0.0,57,0.00,,SKC,0.00,VWS V14.00,2013-07-09 03:17:00,
2013-07-08 23:22:00,83.2,66.4,30.17,NW,306,0.0,0.0,57,0.00,,SKC,0.00,VWS V14.00,2013-07-09 03:22:00,
2013-07-08 23:27:00,83.2,66.4,30.17,NW,306,0.0,0.0,57,0.00,,SKC,0.00,VWS V14.00,2013-07-09 03:27:00,
2013-07-08 23:33:00,83.2,66.4,30.17,NW,306,0.0,0.0,57,0.00,,SKC,0.00,VWS V14.00,2013-07-09 03:33:00,
2013-07-08 23:38:00,83.2,66.4,30.17,NW,306,0.0,0.0,57,0.00,,SKC,0.00,VWS V14.00,2013-07-09 03:38:00,
2013-07-08 23:43:00,83.2,66.4,30.17,NW,306,0.0,0.0,57,0.00,,SKC,0.00,VWS V14.00,2013-07-09 03:43:00,
2013-07-08 23:48:00,83.2,66.4,30.16,NW,306,0.0,0.0,57,0.00,,SKC,0.00,VWS V14.00,2013-07-09 03:48:00,
2013-07-08 23:53:00,83.2,66.4,30.16,NW,306,0.0,0.0,57,0.00,,SKC,0.00,VWS V14.00,2013-07-09 03:53:00,
2013-07-08 23:58:00,83.2,66.4,30.16,NW,306,0.0,0.0,57,0.00,,SKC,0.00,VWS V14.00,2013-07-09 03:58:00,